星链-2590 (STARLINK-2590 )

导读 | 星芒AI

STARLINK-2590 是 SpaceX Starlink 卫星互联网项目中的第2590颗卫星,属于“星链”计划的中轨道卫星群之一。该卫星旨在为全球用户提供高速、低延迟的互联网服务,尤其服务于网络基础设施薄弱的地区。它采用先进的推进和通信技术,具备自动避碰功能,以确保在轨安全。作为星链计划的一部分,STARLINK-2590 有助于扩大全球互联网覆盖范围,促进数字连接与通信发展。

基本信息
目录编号:
48397
目录名称:
STARLINK-2590
国际标识:
2021-038AW
轨道中心:
EARTH
卫星名称:
星链-2590
卫星全名:
星链-2590 (STARLINK-2590 )
卫星状态:
在轨 (已飞行1689 天)
发射日期:
2021-05-04 UTC
国别 :
美国 (US)
星等 :
--
轨道信息
数据来源 国际轨道数据
星历时间: 2025-12-17T14:51:47+0800
1天前
查看轨道信息
半长轴: 6925.353km
偏心率: 0.0001373
轨道倾角: 53.056°
近地点辐角 90.491°
升交点赤经 351.544°
平近点角 269.623°
近地点: 546.267km
远地点: 548.169km
周期: 95.592分钟
每日圈数: 15.063987
详细信息
固有亮度:
5
最大亮度:
2.5
卫星平台:
Starlink V1.0
覆盖范围:
全球
运营商:
太空探索技术公司
运营商所在国:
美国
制造商(研发单位):
太空探索技术公司
制造商所在国:
美国
使用方式:
暂无
卫星简介
星链(Starlink)计划是由太空探索技术公司(SpaceX)提出的一个巨型低轨卫星互联网星座项目,计划在2019年至2024年间在太空搭建由约1.2万颗卫星组成的“星链”网络,其中1584颗将部署在地球上空550千米处的近地轨道,并从2020年开始工作。该卫星仍在工作。
2D轨道图
3D轨道图
轨道高度分析图
轨道倾角分析图
轨道综合分析图
查看轨道综合分析图